| time (UTC) | temp F | wind direction | speed MPH | gust MPH | rain 1hr in | rain 24hr in | rain mn in | humidity % | barometer mb |
| 20260509203503 | 70 | 55 | 11.0 | 19.0 | 0.00 | 0.49 | 0.41 | 59 | 1006.0 |
| 20260509203005 | 69 | 63 | 9.0 | 17.0 | 0.00 | 0.49 | 0.41 | 60 | 1006.1 |
| 20260509202503 | 69 | 72 | 6.0 | 17.0 | 0.00 | 0.49 | 0.41 | 60 | 1006.1 |
| 20260509202004 | 69 | 71 | 7.0 | 18.0 | 0.00 | 0.49 | 0.41 | 60 | 1006.1 |
| 20260509201505 | 69 | 92 | 10.0 | 25.0 | 0.00 | 0.49 | 0.41 | 61 | 1006.2 |
| 20260509201003 | 69 | 91 | 14.0 | 25.0 | 0.00 | 0.50 | 0.41 | 58 | 1006.2 |
| 20260509200501 | 69 | 111 | 9.0 | 19.0 | 0.00 | 0.50 | 0.41 | 62 | 1006.2 |
| 20260509200003 | 68 | 60 | 9.0 | 19.0 | 0.00 | 0.50 | 0.41 | 64 | 1006.4 |
| 20260509195504 | 68 | 38 | 12.0 | 18.0 | 0.00 | 0.51 | 0.41 | 66 | 1006.5 |
| 20260509195001 | 66 | 43 | 6.0 | 19.0 | 0.00 | 0.51 | 0.41 | 69 | 1006.6 |
| 20260509194502 | 66 | 71 | 11.0 | 19.0 | 0.00 | 0.51 | 0.41 | 65 | 1006.7 |
| 20260509194003 | 66 | 32 | 9.0 | 17.0 | 0.00 | 0.51 | 0.41 | 64 | 1006.7 |
| 20260509193502 | 66 | 62 | 9.0 | 16.0 | 0.00 | 0.51 | 0.41 | 63 | 1006.8 |
| 20260509193007 | 67 | 55 | 9.0 | 17.0 | 0.00 | 0.51 | 0.41 | 64 | 1006.9 |
| 20260509192502 | 67 | 54 | 11.0 | 17.0 | 0.00 | 0.51 | 0.41 | 64 | 1006.9 |
| 20260509192004 | 67 | 67 | 6.0 | 17.0 | 0.00 | 0.51 | 0.41 | 68 | 1006.9 |
| 20260509191504 | 67 | 34 | 10.0 | 22.0 | 0.00 | 0.51 | 0.41 | 65 | 1006.9 |
| 20260509191003 | 67 | 59 | 14.0 | 22.0 | 0.00 | 0.51 | 0.41 | 67 | 1007.0 |
| 20260509190503 | 66 | 32 | 8.0 | 19.0 | 0.00 | 0.51 | 0.41 | 69 | 1007.0 |
| 20260509190009 | 66 | 26 | 10.0 | 17.0 | 0.00 | 0.51 | 0.41 | 69 | 1007.1 |
| 20260509185502 | 66 | 53 | 11.0 | 22.0 | 0.00 | 0.51 | 0.41 | 68 | 1007.1 |
| 20260509185008 | 66 | 49 | 8.0 | 22.0 | 0.00 | 0.51 | 0.41 | 65 | 1007.1 |
| 20260509184507 | 67 | 103 | 10.0 | 22.0 | 0.00 | 0.51 | 0.41 | 67 | 1007.1 |
| 20260509184002 | 66 | 53 | 14.0 | 22.0 | 0.00 | 0.52 | 0.41 | 68 | 1007.2 |
| 20260509183504 | 67 | 109 | 9.0 | 20.0 | 0.00 | 0.52 | 0.41 | 64 | 1007.1 |
| 20260509183007 | 67 | 57 | 10.0 | 17.0 | 0.00 | 0.52 | 0.41 | 65 | 1007.0 |
| 20260509182504 | 67 | 54 | 9.0 | 19.0 | 0.00 | 0.52 | 0.41 | 68 | 1007.1 |
| 20260509182004 | 66 | 80 | 13.0 | 19.0 | 0.00 | 0.52 | 0.41 | 67 | 1007.1 |
| 20260509181504 | 65 | 54 | 8.0 | 18.0 | 0.00 | 0.52 | 0.41 | 71 | 1007.1 |
| 20260509181003 | 65 | 46 | 9.0 | 19.0 | 0.00 | 0.52 | 0.41 | 67 | 1007.2 |
| 20260509180507 | 65 | 67 | 8.0 | 19.0 | 0.00 | 0.52 | 0.41 | 68 | 1007.1 |
| 20260509180007 | 65 | 88 | 11.0 | 19.0 | 0.00 | 0.52 | 0.41 | 71 | 1007.2 |
| 20260509175503 | 65 | 88 | 9.0 | 22.0 | 0.00 | 0.52 | 0.41 | 69 | 1007.2 |
| 20260509175003 | 64 | 45 | 11.0 | 22.0 | 0.00 | 0.52 | 0.41 | 70 | 1007.3 |
| 20260509174507 | 64 | 79 | 11.0 | 20.0 | 0.00 | 0.54 | 0.41 | 69 | 1007.3 |
| 20260509174003 | 64 | 68 | 11.0 | 20.0 | 0.00 | 0.54 | 0.41 | 71 | 1007.2 |
| 20260509173502 | 64 | 18 | 10.0 | 18.0 | 0.00 | 0.54 | 0.41 | 70 | 1007.2 |
| 20260509173005 | 64 | 51 | 10.0 | 19.0 | 0.00 | 0.54 | 0.41 | 72 | 1007.2 |
| 20260509172505 | 63 | 91 | 10.0 | 19.0 | 0.00 | 0.54 | 0.41 | 74 | 1007.2 |
| 20260509172004 | 63 | 65 | 9.0 | 17.0 | 0.00 | 0.54 | 0.41 | 70 | 1007.3 |
| 20260509171506 | 63 | 42 | 7.0 | 16.0 | 0.00 | 0.54 | 0.41 | 73 | 1007.3 |
| 20260509171002 | 62 | 67 | 8.0 | 19.0 | 0.00 | 0.54 | 0.41 | 74 | 1007.5 |
| 20260509170507 | 62 | 78 | 12.0 | 19.0 | 0.00 | 0.54 | 0.41 | 74 | 1007.6 |
| 20260509170008 | 61 | 109 | 10.0 | 19.0 | 0.00 | 0.54 | 0.41 | 76 | 1007.7 |
| 20260509165502 | 61 | 62 | 10.0 | 20.0 | 0.00 | 0.54 | 0.41 | 72 | 1007.7 |
| 20260509165003 | 62 | 80 | 10.0 | 21.0 | 0.00 | 0.54 | 0.41 | 74 | 1007.7 |
| 20260509164509 | 61 | 65 | 11.0 | 21.0 | 0.00 | 0.54 | 0.41 | 78 | 1007.6 |
| 20260509164006 | 61 | 67 | 8.0 | 17.0 | 0.00 | 0.54 | 0.41 | 77 | 1007.6 |
| 20260509163504 | 61 | 115 | 9.0 | 17.0 | 0.00 | 0.54 | 0.41 | 78 | 1007.6 |
| 20260509163014 | 61 | 57 | 7.0 | 15.0 | 0.00 | 0.54 | 0.41 | 80 | 1007.6 |
| 20260509162505 | 60 | 73 | 6.0 | 18.0 | 0.00 | 0.54 | 0.41 | 82 | 1007.6 |
| 20260509162003 | 60 | 76 | 9.0 | 18.0 | 0.00 | 0.54 | 0.41 | 81 | 1007.7 |
| 20260509161509 | 60 | 63 | 9.0 | 21.0 | 0.00 | 0.54 | 0.41 | 82 | 1007.7 |
| 20260509161005 | 59 | 68 | 9.0 | 21.0 | 0.00 | 0.54 | 0.41 | 82 | 1007.8 |
| 20260509160503 | 59 | 58 | 11.0 | 17.0 | 0.00 | 0.54 | 0.41 | 82 | 1007.8 |
| 20260509160012 | 59 | 121 | 10.0 | 17.0 | 0.00 | 0.54 | 0.41 | 84 | 1007.7 |
| 20260509155502 | 59 | 83 | 10.0 | 16.0 | 0.00 | 0.54 | 0.41 | 84 | 1007.7 |
| 20260509155004 | 58 | 34 | 7.0 | 15.0 | 0.00 | 0.54 | 0.41 | 87 | 1007.7 |
| 20260509154516 | 58 | 88 | 8.0 | 15.0 | 0.00 | 0.54 | 0.41 | 87 | 1007.8 |
| 20260509154003 | 57 | 35 | 9.0 | 14.0 | 0.00 | 0.54 | 0.41 | 87 | 1007.8 |
| 20260509153504 | 57 | 42 | 6.0 | 14.0 | 0.00 | 0.54 | 0.41 | 87 | 1007.8 |
| 20260509153017 | 57 | 92 | 6.0 | 12.0 | 0.00 | 0.54 | 0.41 | 90 | 1007.7 |
| 20260509152504 | 56 | 67 | 5.0 | 12.0 | 0.00 | 0.54 | 0.41 | 91 | 1007.8 |
| 20260509152004 | 55 | 61 | 5.0 | 12.0 | 0.00 | 0.54 | 0.41 | 90 | 1007.7 |
| 20260509151514 | 55 | 80 | 4.0 | 12.0 | 0.00 | 0.54 | 0.41 | 91 | 1007.6 |
| 20260509151003 | 55 | 90 | 5.0 | 16.0 | 0.00 | 0.54 | 0.41 | 91 | 1007.5 |
| 20260509150507 | 55 | 69 | 6.0 | 16.0 | 0.00 | 0.54 | 0.41 | 91 | 1007.4 |
| 20260509150013 | 55 | 71 | 4.0 | 10.0 | 0.00 | 0.54 | 0.41 | 91 | 1007.5 |
| 20260509145503 | 55 | 66 | 5.0 | 15.0 | 0.00 | 0.54 | 0.41 | 91 | 1007.4 |
| 20260509145003 | 54 | 61 | 5.0 | 15.0 | 0.00 | 0.54 | 0.41 | 91 | 1007.3 |
| 20260509144517 | 54 | 96 | 7.0 | 14.0 | 0.00 | 0.54 | 0.41 | 93 | 1007.3 |
| 20260509144004 | 54 | 84 | 5.0 | 14.0 | 0.00 | 0.54 | 0.41 | 93 | 1007.4 |
| 20260509143504 | 54 | 87 | 6.0 | 12.0 | 0.00 | 0.54 | 0.41 | 93 | 1007.4 |
| 20260509143019 | 54 | 92 | 4.0 | 12.0 | 0.00 | 0.54 | 0.41 | 93 | 1007.5 |
| 20260509142505 | 54 | 92 | 6.0 | 12.0 | 0.00 | 0.54 | 0.41 | 93 | 1007.5 |
| 20260509142008 | 54 | 90 | 7.0 | 13.0 | 0.00 | 0.54 | 0.41 | 94 | 1007.5 |
| 20260509141534 | 54 | 74 | 6.0 | 13.0 | 0.00 | 0.54 | 0.41 | 94 | 1007.5 |
| 20260509141004 | 54 | 72 | 7.0 | 15.0 | 0.00 | 0.54 | 0.41 | 94 | 1007.4 |
| 20260509140504 | 54 | 88 | 10.0 | 15.0 | 0.00 | 0.54 | 0.41 | 95 | 1007.2 |
| 20260509140011 | 54 | 53 | 6.0 | 14.0 | 0.00 | 0.54 | 0.41 | 97 | 1007.1 |
| 20260509135506 | 54 | 35 | 6.0 | 14.0 | 0.00 | 0.54 | 0.41 | 97 | 1007.1 |
| 20260509135007 | 53 | 61 | 7.0 | 14.0 | 0.00 | 0.54 | 0.41 | 97 | 1007.3 |
| 20260509134528 | 53 | 73 | 7.0 | 12.0 | 0.00 | 0.54 | 0.41 | 97 | 1007.4 |
| 20260509134006 | 53 | 51 | 5.0 | 11.0 | 0.00 | 0.54 | 0.41 | 97 | 1007.4 |
| 20260509133503 | 52 | 57 | 7.0 | 12.0 | 0.00 | 0.54 | 0.41 | 97 | 1007.4 |
| 20260509133018 | 52 | 44 | 7.0 | 12.0 | 0.00 | 0.54 | 0.41 | 97 | 1007.5 |
| 20260509132505 | 52 | 35 | 7.0 | 12.0 | 0.00 | 0.54 | 0.41 | 96 | 1007.6 |
| 20260509132003 | 52 | 46 | 5.0 | 12.0 | 0.00 | 0.54 | 0.41 | 96 | 1007.7 |
| 20260509131506 | 52 | 69 | 6.0 | 12.0 | 0.00 | 0.54 | 0.41 | 96 | 1007.7 |
| 20260509131003 | 52 | 12 | 5.0 | 11.0 | 0.00 | 0.54 | 0.41 | 96 | 1007.7 |
| 20260509130503 | 51 | 58 | 6.0 | 11.0 | 0.00 | 0.54 | 0.41 | 96 | 1007.8 |
| 20260509130005 | 51 | 53 | 5.0 | 11.0 | 0.00 | 0.54 | 0.41 | 96 | 1007.8 |
| 20260509125508 | 51 | 46 | 5.0 | 11.0 | 0.00 | 0.54 | 0.41 | 96 | 1007.9 |
| 20260509125005 | 51 | 88 | 6.0 | 11.0 | 0.00 | 0.54 | 0.41 | 96 | 1007.9 |
| 20260509124511 | 51 | 60 | 4.0 | 10.0 | 0.00 | 0.54 | 0.41 | 96 | 1007.9 |
| 20260509124002 | 51 | 44 | 6.0 | 10.0 | 0.00 | 0.54 | 0.41 | 96 | 1007.9 |
| 20260509123504 | 51 | 79 | 4.0 | 9.0 | 0.00 | 0.54 | 0.41 | 96 | 1007.9 |
| 20260509123017 | 51 | 55 | 5.0 | 10.0 | 0.00 | 0.54 | 0.41 | 96 | 1007.7 |
| 20260509122506 | 51 | 52 | 4.0 | 10.0 | 0.00 | 0.54 | 0.41 | 97 | 1007.7 |
| 20260509122003 | 51 | 63 | 4.0 | 10.0 | 0.00 | 0.54 | 0.41 | 97 | 1007.8 |
| 20260509121511 | 51 | 69 | 4.0 | 10.0 | 0.00 | 0.54 | 0.41 | 97 | 1007.9 |
| 20260509121005 | 51 | 66 | 3.0 | 10.0 | 0.00 | 0.54 | 0.41 | 97 | 1007.9 |
| 20260509120504 | 51 | 61 | 5.0 | 10.0 | 0.00 | 0.54 | 0.41 | 96 | 1007.9 |
| 20260509120012 | 51 | 34 | 4.0 | 11.0 | 0.00 | 0.54 | 0.41 | 96 | 1007.9 |
| 20260509115503 | 51 | 19 | 4.0 | 11.0 | 0.00 | 0.54 | 0.41 | 96 | 1007.9 |
| 20260509115003 | 51 | 40 | 5.0 | 10.0 | 0.00 | 0.54 | 0.41 | 96 | 1008.0 |
| 20260509114506 | 51 | 5 | 4.0 | 9.0 | 0.00 | 0.54 | 0.41 | 97 | 1008.0 |
| 20260509114004 | 50 | 46 | 3.0 | 10.0 | 0.00 | 0.54 | 0.41 | 96 | 1008.0 |
| 20260509113504 | 50 | 40 | 4.0 | 10.0 | 0.00 | 0.54 | 0.41 | 96 | 1007.9 |
| 20260509113012 | 50 | 34 | 4.0 | 9.0 | 0.00 | 0.54 | 0.41 | 97 | 1007.8 |
| 20260509112504 | 50 | 5 | 3.0 | 8.0 | 0.00 | 0.54 | 0.41 | 96 | 1007.9 |
| 20260509112008 | 50 | 360 | 3.0 | 8.0 | 0.00 | 0.54 | 0.41 | 96 | 1007.9 |
| 20260509111514 | 50 | 38 | 2.0 | 7.0 | 0.00 | 0.54 | 0.41 | 96 | 1007.9 |
| 20260509111003 | 50 | 72 | 3.0 | 5.0 | 0.00 | 0.54 | 0.41 | 96 | 1007.8 |
| 20260509110505 | 50 | 44 | 2.0 | 6.0 | 0.00 | 0.54 | 0.41 | 96 | 1007.7 |
| 20260509110015 | 50 | 26 | 3.0 | 6.0 | 0.00 | 0.54 | 0.41 | 96 | 1007.6 |
| 20260509105510 | 50 | 44 | 2.0 | 6.0 | 0.00 | 0.54 | 0.41 | 96 | 1007.6 |
| 20260509105004 | 50 | 5 | 2.0 | 6.0 | 0.00 | 0.54 | 0.41 | 96 | 1007.5 |
| 20260509104514 | 50 | 53 | 3.0 | 6.0 | 0.00 | 0.55 | 0.41 | 96 | 1007.5 |
| 20260509104004 | 50 | 36 | 3.0 | 6.0 | 0.00 | 0.55 | 0.41 | 96 | 1007.5 |
| 20260509103503 | 50 | 36 | 1.0 | 6.0 | 0.00 | 0.55 | 0.41 | 96 | 1007.5 |
| 20260509103006 | 50 | 37 | 2.0 | 7.0 | 0.01 | 0.55 | 0.41 | 96 | 1007.5 |
| 20260509102502 | 50 | 17 | 3.0 | 8.0 | 0.01 | 0.55 | 0.41 | 96 | 1007.4 |
| 20260509102006 | 50 | 12 | 3.0 | 8.0 | 0.01 | 0.55 | 0.41 | 96 | 1007.4 |
| 20260509101513 | 50 | 52 | 3.0 | 8.0 | 0.01 | 0.55 | 0.41 | 96 | 1007.5 |
| 20260509101005 | 50 | 56 | 2.0 | 5.0 | 0.01 | 0.55 | 0.41 | 96 | 1007.5 |
| 20260509100506 | 50 | 58 | 3.0 | 9.0 | 0.02 | 0.55 | 0.41 | 96 | 1007.5 |
| 20260509100019 | 50 | 5 | 3.0 | 9.0 | 0.02 | 0.55 | 0.41 | 96 | 1007.5 |
| 20260509095505 | 50 | 44 | 2.0 | 8.0 | 0.03 | 0.55 | 0.41 | 96 | 1007.6 |
| 20260509095006 | 50 | 46 | 3.0 | 8.0 | 0.04 | 0.55 | 0.41 | 96 | 1007.7 |
| 20260509094529 | 50 | 42 | 2.0 | 8.0 | 0.04 | 0.55 | 0.41 | 96 | 1007.7 |
| 20260509094007 | 50 | 34 | 3.0 | 6.0 | 0.04 | 0.55 | 0.41 | 96 | 1007.7 |
| 20260509093505 | 50 | 21 | 4.0 | 10.0 | 0.05 | 0.55 | 0.41 | 96 | 1007.7 |
| 20260509093020 | 50 | 28 | 5.0 | 10.0 | 0.04 | 0.54 | 0.40 | 96 | 1007.8 |
| 20260509092508 | 50 | 351 | 4.0 | 9.0 | 0.05 | 0.54 | 0.40 | 96 | 1007.8 |
| 20260509092004 | 50 | 24 | 3.0 | 8.0 | 0.06 | 0.54 | 0.40 | 96 | 1007.8 |
| 20260509091508 | 50 | 26 | 4.0 | 10.0 | 0.07 | 0.54 | 0.40 | 96 | 1007.8 |
| 20260509091006 | 50 | 35 | 4.0 | 10.0 | 0.07 | 0.54 | 0.40 | 96 | 1007.8 |
| 20260509090507 | 50 | 26 | 4.0 | 9.0 | 0.06 | 0.52 | 0.39 | 97 | 1007.9 |
| 20260509090013 | 50 | 49 | 4.0 | 9.0 | 0.07 | 0.52 | 0.39 | 97 | 1008.0 |
| 20260509085506 | 50 | 66 | 3.0 | 9.0 | 0.06 | 0.52 | 0.38 | 96 | 1008.0 |
| 20260509085007 | 50 | 58 | 3.0 | 9.0 | 0.06 | 0.51 | 0.37 | 96 | 1008.1 |
| 20260509084520 | 50 | 30 | 3.0 | 9.0 | 0.07 | 0.51 | 0.37 | 96 | 1008.1 |
| 20260509084003 | 50 | 32 | 3.0 | 9.0 | 0.08 | 0.51 | 0.37 | 96 | 1008.1 |
| 20260509083507 | 50 | 9 | 3.0 | 8.0 | 0.07 | 0.50 | 0.36 | 96 | 1008.2 |
| 20260509083023 | 50 | 17 | 3.0 | 8.0 | 0.08 | 0.50 | 0.36 | 96 | 1008.2 |
| 20260509082503 | 49 | 352 | 4.0 | 6.0 | 0.07 | 0.49 | 0.35 | 96 | 1008.3 |
| 20260509082007 | 49 | 25 | 2.0 | 7.0 | 0.07 | 0.48 | 0.34 | 96 | 1008.3 |
| 20260509081533 | 49 | 13 | 4.0 | 7.0 | 0.06 | 0.47 | 0.33 | 96 | 1008.5 |
| 20260509081009 | 49 | 31 | 2.0 | 7.0 | 0.06 | 0.47 | 0.33 | 96 | 1008.5 |
| 20260509080504 | 49 | 17 | 3.0 | 9.0 | 0.08 | 0.47 | 0.33 | 96 | 1008.5 |
| 20260509080010 | 49 | 19 | 3.0 | 9.0 | 0.07 | 0.46 | 0.32 | 96 | 1008.5 |
| 20260509075505 | 49 | 15 | 2.0 | 7.0 | 0.08 | 0.46 | 0.32 | 96 | 1008.3 |
| 20260509075005 | 49 | 329 | 3.0 | 8.0 | 0.08 | 0.45 | 0.31 | 96 | 1008.3 |
| 20260509074516 | 49 | 5 | 3.0 | 8.0 | 0.08 | 0.44 | 0.30 | 96 | 1008.4 |
| 20260509074008 | 50 | 24 | 3.0 | 6.0 | 0.09 | 0.43 | 0.29 | 96 | 1008.6 |
| 20260509073508 | 50 | 12 | 2.0 | 6.0 | 0.09 | 0.43 | 0.29 | 96 | 1008.6 |
| 20260509073032 | 50 | 17 | 2.0 | 4.0 | 0.09 | 0.42 | 0.28 | 96 | 1008.5 |
| 20260509072507 | 50 | 360 | 1.0 | 4.0 | 0.11 | 0.42 | 0.28 | 96 | 1008.5 |
| 20260509072012 | 50 | 5 | 2.0 | 8.0 | 0.13 | 0.41 | 0.27 | 96 | 1008.6 |
| 20260509071538 | 50 | 5 | 3.0 | 8.0 | 0.14 | 0.41 | 0.27 | 96 | 1008.6 |
| 20260509071006 | 50 | 13 | 1.0 | 4.0 | 0.16 | 0.41 | 0.27 | 96 | 1008.7 |
| 20260509070513 | 50 | 355 | 2.0 | 4.0 | 0.16 | 0.39 | 0.25 | 96 | 1008.8 |
| 20260509070039 | 50 | 9 | 2.0 | 4.0 | 0.16 | 0.39 | 0.25 | 96 | 1008.7 |
| 20260509065513 | 50 | 29 | 1.0 | 5.0 | 0.16 | 0.38 | 0.24 | 96 | 1008.9 |
| 20260509065007 | 50 | 23 | 2.0 | 8.0 | 0.16 | 0.37 | 0.23 | 96 | 1008.9 |
| 20260509064514 | 50 | 17 | 2.0 | 8.0 | 0.16 | 0.36 | 0.22 | 96 | 1008.9 |
| 20260509064008 | 50 | 12 | 3.0 | 6.0 | 0.15 | 0.34 | 0.20 | 96 | 1008.9 |
| 20260509063506 | 50 | 19 | 2.0 | 6.0 | 0.16 | 0.34 | 0.20 | 96 | 1008.8 |
| 20260509063037 | 50 | 9 | 2.0 | 6.0 | 0.16 | 0.33 | 0.19 | 96 | 1009.0 |
| 20260509062508 | 50 | 5 | 2.0 | 7.0 | 0.14 | 0.31 | 0.17 | 96 | 1008.9 |
| 20260509062012 | 50 | 24 | 2.0 | 7.0 | 0.11 | 0.28 | 0.14 | 96 | 1009.0 |
| 20260509061516 | 50 | 5 | 1.0 | 5.0 | 0.10 | 0.27 | 0.13 | 96 | 1009.0 |
| 20260509061009 | 50 | 355 | 1.0 | 4.0 | 0.08 | 0.25 | 0.11 | 96 | 1009.2 |
| 20260509060510 | 50 | 40 | 2.0 | 4.0 | 0.06 | 0.24 | 0.09 | 96 | 1009.2 |
| 20260509060037 | 50 | 17 | 2.0 | 5.0 | 0.06 | 0.24 | 0.09 | 96 | 1009.3 |
| 20260509055507 | 50 | 30 | 1.0 | 5.0 | 0.05 | 0.23 | 0.08 | 96 | 1009.4 |
| 20260509055013 | 50 | 13 | 2.0 | 5.0 | 0.05 | 0.22 | 0.07 | 96 | 1009.4 |
| 20260509054529 | 50 | 28 | 2.0 | 5.0 | 0.04 | 0.21 | 0.06 | 96 | 1009.3 |
| 20260509054007 | 50 | 352 | 1.0 | 4.0 | 0.03 | 0.20 | 0.05 | 95 | 1009.5 |
| 20260509053507 | 50 | 14 | 1.0 | 4.0 | 0.02 | 0.19 | 0.04 | 96 | 1009.5 |
| 20260509053029 | 50 | 9 | 1.0 | 4.0 | 0.01 | 0.18 | 0.03 | 95 | 1009.6 |
| 20260509052506 | 50 | 349 | 1.0 | 3.0 | 0.01 | 0.18 | 0.03 | 95 | 1009.6 |
| 20260509052005 | 50 | 341 | 1.0 | 4.0 | 0.01 | 0.18 | 0.03 | 95 | 1009.6 |
| 20260509051523 | 50 | 329 | 1.0 | 4.0 | 0.02 | 0.18 | 0.03 | 95 | 1009.6 |
| 20260509051003 | 50 | 302 | 2.0 | 5.0 | 0.02 | 0.18 | 0.03 | 95 | 1009.6 |
| 20260509050502 | 50 | 317 | 2.0 | 5.0 | 0.02 | 0.18 | 0.03 | 95 | 1009.6 |
| 20260509050007 | 50 | 303 | 2.0 | 5.0 | 0.03 | 0.18 | 0.03 | 95 | 1009.7 |
| 20260509045504 | 49 | 309 | 2.0 | 4.0 | 0.03 | 0.18 | 0.03 | 95 | 1009.7 |
| 20260509045002 | 50 | 331 | 0.0 | 4.0 | 0.02 | 0.17 | 0.02 | 95 | 1009.8 |
| 20260509044509 | 49 | 321 | 1.0 | 4.0 | 0.02 | 0.17 | 0.02 | 95 | 1009.8 |
| 20260509044003 | 49 | 294 | 2.0 | 4.0 | 0.02 | 0.17 | 0.02 | 95 | 1009.7 |
| 20260509043503 | 49 | 327 | 1.0 | 4.0 | 0.02 | 0.17 | 0.02 | 95 | 1009.8 |
| 20260509043014 | 49 | 307 | 1.0 | 4.0 | 0.03 | 0.17 | 0.02 | 95 | 1009.9 |
| 20260509042507 | 49 | 300 | 1.0 | 3.0 | 0.03 | 0.17 | 0.02 | 95 | 1009.8 |
| 20260509042002 | 49 | 286 | 0.0 | 2.0 | 0.03 | 0.17 | 0.02 | 95 | 1010.0 |
| 20260509041511 | 49 | 286 | 0.0 | 3.0 | 0.02 | 0.16 | 0.01 | 95 | 1010.0 |
| 20260509041007 | 49 | 286 | 1.0 | 3.0 | 0.02 | 0.16 | 0.01 | 95 | 1010.0 |
| 20260509040507 | 49 | 286 | 1.0 | 3.0 | 0.02 | 0.16 | 0.01 | 95 | 1010.0 |
| 20260509040010 | 49 | 286 | 1.0 | 3.0 | 0.01 | 0.15 | 0.00 | 95 | 1010.1 |
| 20260509035509 | 49 | 279 | 2.0 | 4.0 | 0.02 | 0.15 | 0.15 | 95 | 1010.1 |
| 20260509035009 | 49 | 288 | 2.0 | 4.0 | 0.03 | 0.15 | 0.15 | 95 | 1010.2 |
| 20260509034508 | 49 | 292 | 1.0 | 3.0 | 0.03 | 0.15 | 0.15 | 95 | 1010.3 |
| 20260509034003 | 49 | 309 | 1.0 | 4.0 | 0.03 | 0.15 | 0.15 | 94 | 1010.4 |
| 20260509033502 | 49 | 296 | 1.0 | 4.0 | 0.03 | 0.15 | 0.15 | 94 | 1010.6 |
| 20260509033015 | 49 | 303 | 2.0 | 4.0 | 0.02 | 0.14 | 0.14 | 94 | 1010.6 |
| 20260509032504 | 49 | 308 | 2.0 | 4.0 | 0.02 | 0.14 | 0.14 | 94 | 1010.7 |
| 20260509032006 | 49 | 333 | 1.0 | 3.0 | 0.02 | 0.14 | 0.14 | 94 | 1010.8 |
| 20260509031514 | 49 | 292 | 0.0 | 2.0 | 0.03 | 0.14 | 0.14 | 94 | 1010.8 |
| 20260509031006 | 49 | 292 | 0.0 | 2.0 | 0.03 | 0.14 | 0.14 | 94 | 1010.9 |
| 20260509030506 | 49 | 292 | 0.0 | 4.0 | 0.03 | 0.14 | 0.14 | 94 | 1010.9 |
| 20260509030020 | 49 | 289 | 1.0 | 4.0 | 0.03 | 0.14 | 0.14 | 94 | 1010.7 |
| 20260509025508 | 49 | 278 | 1.0 | 4.0 | 0.02 | 0.13 | 0.13 | 94 | 1010.9 |
| 20260509025003 | 49 | 309 | 2.0 | 7.0 | 0.01 | 0.12 | 0.12 | 94 | 1011.0 |
| 20260509024517 | 49 | 309 | 2.0 | 8.0 | 0.01 | 0.12 | 0.12 | 94 | 1011.1 |
| 20260509024010 | 49 | 296 | 2.0 | 8.0 | 0.02 | 0.12 | 0.12 | 94 | 1011.1 |
| 20260509023511 | 49 | 304 | 2.0 | 7.0 | 0.02 | 0.12 | 0.12 | 94 | 1011.0 |
| 20260509023008 | 49 | 302 | 3.0 | 9.0 | 0.02 | 0.12 | 0.12 | 94 | 1011.1 |
| 20260509022504 | 49 | 296 | 4.0 | 9.0 | 0.02 | 0.12 | 0.12 | 94 | 1011.1 |
| 20260509022004 | 49 | 308 | 2.0 | 7.0 | 0.02 | 0.12 | 0.12 | 94 | 1011.2 |
| 20260509021512 | 49 | 300 | 3.0 | 7.0 | 0.01 | 0.11 | 0.11 | 94 | 1011.2 |
| 20260509021003 | 49 | 302 | 2.0 | 4.0 | 0.01 | 0.11 | 0.11 | 94 | 1011.2 |
| 20260509020504 | 49 | 282 | 2.0 | 4.0 | 0.01 | 0.11 | 0.11 | 93 | 1011.2 |
| 20260509020032 | 49 | 272 | 2.0 | 4.0 | 0.02 | 0.11 | 0.11 | 93 | 1011.2 |
| 20260509015505 | 49 | 279 | 2.0 | 4.0 | 0.02 | 0.11 | 0.11 | 93 | 1011.3 |
| 20260509015005 | 50 | 279 | 1.0 | 4.0 | 0.02 | 0.11 | 0.11 | 93 | 1011.3 |
| 20260509014538 | 50 | 267 | 1.0 | 4.0 | 0.02 | 0.11 | 0.11 | 93 | 1011.2 |
| 20260509014006 | 50 | 267 | 2.0 | 3.0 | 0.01 | 0.10 | 0.10 | 93 | 1011.2 |
| 20260509013504 | 50 | 267 | 0.0 | 2.0 | 0.02 | 0.10 | 0.10 | 93 | 1011.2 |
| 20260509013023 | 50 | 267 | 1.0 | 3.0 | 0.02 | 0.10 | 0.10 | 93 | 1011.1 |
| 20260509012509 | 50 | 250 | 1.0 | 3.0 | 0.02 | 0.10 | 0.10 | 93 | 1011.0 |
| 20260509012014 | 50 | 277 | 2.0 | 3.0 | 0.02 | 0.10 | 0.10 | 93 | 1011.1 |
| 20260509011516 | 50 | 248 | 1.0 | 3.0 | 0.02 | 0.10 | 0.10 | 92 | 1011.1 |
| 20260509011003 | 50 | 252 | 0.0 | 3.0 | 0.02 | 0.10 | 0.10 | 92 | 1011.1 |
| 20260509010502 | 50 | 271 | 0.0 | 3.0 | 0.02 | 0.10 | 0.10 | 92 | 1011.1 |
| 20260509010012 | 50 | 254 | 0.0 | 2.0 | 0.02 | 0.09 | 0.09 | 92 | 1011.1 |
| 20260509005503 | 50 | 130 | 0.0 | 2.0 | 0.02 | 0.09 | 0.09 | 92 | 1011.0 |
| 20260509005006 | 50 | 130 | 0.0 | 2.0 | 0.02 | 0.09 | 0.09 | 92 | 1010.9 |
| 20260509004522 | 50 | 130 | 0.0 | 1.0 | 0.02 | 0.09 | 0.09 | 91 | 1010.9 |
| 20260509004006 | 50 | 130 | 0.0 | 0.0 | 0.02 | 0.09 | 0.09 | 91 | 1010.7 |
| 20260509003509 | 50 | 130 | 0.0 | 1.0 | 0.01 | 0.08 | 0.08 | 91 | 1010.7 |
| 20260509003030 | 51 | 130 | 0.0 | 4.0 | 0.01 | 0.08 | 0.08 | 91 | 1010.6 |
| 20260509002510 | 51 | 130 | 1.0 | 4.0 | 0.01 | 0.08 | 0.08 | 91 | 1010.6 |
| 20260509002004 | 51 | 278 | 1.0 | 3.0 | 0.01 | 0.08 | 0.08 | 90 | 1010.6 |
| 20260509001523 | 51 | 241 | 0.0 | 2.0 | 0.01 | 0.08 | 0.08 | 90 | 1010.8 |
| 20260509001008 | 51 | 241 | 0.0 | 3.0 | 0.01 | 0.08 | 0.08 | 89 | 1010.8 |
| 20260509000503 | 51 | 117 | 0.0 | 4.0 | 0.01 | 0.08 | 0.08 | 89 | 1010.9 |
| 20260509000020 | 51 | 141 | 0.0 | 6.0 | 0.00 | 0.07 | 0.07 | 89 | 1011.2 |
| 20260508235508 | 51 | 94 | 3.0 | 7.0 | 0.00 | 0.07 | 0.07 | 89 | 1011.3 |
| 20260508235004 | 51 | 111 | 2.0 | 7.0 | 0.00 | 0.07 | 0.07 | 88 | 1011.0 |
| 20260508234512 | 52 | 190 | 1.0 | 4.0 | 0.00 | 0.07 | 0.07 | 88 | 1010.4 |
| 20260508234004 | 52 | 65 | 2.0 | 4.0 | 0.00 | 0.07 | 0.07 | 87 | 1010.4 |
| 20260508233507 | 52 | 235 | 1.0 | 4.0 | 0.00 | 0.07 | 0.07 | 87 | 1010.1 |
| 20260508233021 | 52 | 233 | 2.0 | 4.0 | 0.00 | 0.07 | 0.07 | 87 | 1010.0 |
| 20260508232507 | 52 | 263 | 2.0 | 4.0 | 0.00 | 0.07 | 0.07 | 86 | 1010.0 |
| 20260508232010 | 52 | 211 | 2.0 | 4.0 | 0.00 | 0.07 | 0.07 | 87 | 1010.0 |
| 20260508231523 | 52 | 200 | 0.0 | 6.0 | 0.00 | 0.07 | 0.07 | 87 | 1009.9 |
| 20260508231007 | 52 | 207 | 3.0 | 6.0 | 0.00 | 0.07 | 0.07 | 87 | 1009.9 |
| 20260508230507 | 52 | 198 | 3.0 | 6.0 | 0.00 | 0.07 | 0.07 | 86 | 1010.0 |
| 20260508230028 | 53 | 200 | 3.0 | 6.0 | 0.00 | 0.07 | 0.07 | 85 | 1010.1 |
| 20260508225508 | 53 | 200 | 2.0 | 4.0 | 0.00 | 0.07 | 0.07 | 85 | 1010.0 |
| 20260508225006 | 53 | 225 | 0.0 | 3.0 | 0.00 | 0.07 | 0.07 | 85 | 1010.0 |
| 20260508224527 | 53 | 221 | 1.0 | 3.0 | 0.00 | 0.07 | 0.07 | 85 | 1009.9 |
| 20260508224009 | 52 | 241 | 1.0 | 4.0 | 0.00 | 0.07 | 0.07 | 85 | 1009.8 |
| 20260508223513 | 52 | 259 | 1.0 | 4.0 | 0.00 | 0.07 | 0.07 | 85 | 1009.7 |
| 20260508223021 | 53 | 259 | 1.0 | 4.0 | 0.00 | 0.07 | 0.07 | 85 | 1009.7 |
| 20260508222508 | 53 | 278 | 1.0 | 4.0 | 0.00 | 0.07 | 0.07 | 85 | 1009.7 |
| 20260508222007 | 53 | 262 | 2.0 | 4.0 | 0.00 | 0.07 | 0.07 | 86 | 1009.6 |
| 20260508221518 | 53 | 283 | 2.0 | 4.0 | 0.00 | 0.07 | 0.07 | 86 | 1009.6 |
| 20260508221011 | 53 | 252 | 1.0 | 4.0 | 0.00 | 0.07 | 0.07 | 86 | 1009.7 |
| 20260508220510 | 52 | 268 | 1.0 | 6.0 | 0.00 | 0.07 | 0.07 | 86 | 1009.8 |
| 20260508220004 | 52 | 260 | 2.0 | 6.0 | 0.00 | 0.07 | 0.07 | 85 | 1009.8 |
| 20260508215502 | 53 | 278 | 3.0 | 6.0 | 0.00 | 0.07 | 0.07 | 85 | 1009.8 |
| 20260508215003 | 53 | 278 | 2.0 | 4.0 | 0.00 | 0.07 | 0.07 | 86 | 1010.0 |
| 20260508214515 | 53 | 266 | 1.0 | 3.0 | 0.00 | 0.07 | 0.07 | 85 | 1010.2 |
| 20260508214002 | 53 | 266 | 1.0 | 3.0 | 0.00 | 0.07 | 0.07 | 84 | 1010.2 |
| 20260508213506 | 53 | 266 | 1.0 | 3.0 | 0.00 | 0.07 | 0.07 | 84 | 1010.2 |
| 20260508213007 | 53 | 266 | 1.0 | 3.0 | 0.00 | 0.07 | 0.07 | 85 | 1010.2 |
| 20260508212501 | 53 | 266 | 0.0 | 3.0 | 0.00 | 0.07 | 0.07 | 85 | 1010.2 |
| 20260508212003 | 53 | 266 | 1.0 | 3.0 | 0.00 | 0.07 | 0.07 | 85 | 1010.2 |
| 20260508211505 | 53 | 305 | 1.0 | 3.0 | 0.00 | 0.07 | 0.07 | 84 | 1010.3 |
| 20260508211004 | 52 | 79 | 0.0 | 0.0 | 0.01 | 0.07 | 0.07 | 84 | 1010.5 |
| 20260508210503 | 52 | 79 | 0.0 | 0.0 | 0.01 | 0.07 | 0.07 | 85 | 1010.6 |
| 20260508210004 | 52 | 79 | 0.0 | 0.0 | 0.01 | 0.07 | 0.07 | 86 | 1010.7 |
| 20260508205504 | 52 | 79 | 0.0 | 0.0 | 0.02 | 0.07 | 0.07 | 86 | 1010.8 |
| 20260508205006 | 51 | 79 | 0.0 | 0.0 | 0.02 | 0.07 | 0.07 | 87 | 1010.9 |
| 20260508204504 | 51 | 79 | 0.0 | 0.0 | 0.02 | 0.07 | 0.07 | 89 | 1010.9 |
| 20260508204003 | 51 | 79 | 0.0 | 1.0 | 0.02 | 0.07 | 0.07 | 91 | 1011.1 |